This is the latest recevied weather packets stored in our database for station/object K1TTC. If no packets are shown the sender has not sent any weather packets the latest 10 day(s).
| Time | Temp. | Humidity | Pressure | Rain* | Wind** | Luminosity | Snow |
|---|---|---|---|---|---|---|---|
| 1788429456 | 17.22° C | 76% | 1017.3 hPa | 2.29 mm | - | 0 W/m² | - |
| 1788428856 | 17.22° C | 76% | 1017.3 hPa | 2.29 mm | - | 0 W/m² | - |
| 1788428257 | 17.22° C | 76% | 1017.3 hPa | 1.27 mm | - | 0 W/m² | - |
| 1788427659 | 17.22° C | 76% | 1017.6 hPa | 0.76 mm | - | 0 W/m² | - |
| 1788427056 | 17.78° C | 75% | 1017.7 hPa | 1.27 mm | - | 0 W/m² | - |
| 1788426456 | 17.78° C | 75% | 1017.7 hPa | 3.56 mm | - | 0 W/m² | - |
| 1788425855 | 17.78° C | 74% | 1017.6 hPa | 3.56 mm | - | 0 W/m² | - |
| 1788425277 | 17.78° C | 74% | 1017.7 hPa | 3.56 mm | - | 0 W/m² | - |
| 1788424650 | 17.78° C | 73% | 1017.8 hPa | 3.56 mm | - | 0 W/m² | - |
| 1788424051 | 18.33° C | 73% | 1018 hPa | 3.56 mm | - | 0 W/m² | - |
| 1788423451 | 18.33° C | 72% | 1018 hPa | 2.79 mm | - | 0 W/m² | - |
| 1788422851 | 18.33° C | 71% | 1017.5 hPa | 0 mm | - | 0 W/m² | - |
| 1788422246 | 18.33° C | 71% | 1017.7 hPa | 0 mm | - | 0 W/m² | - |
| 1788421645 | 18.33° C | 71% | 1017.8 hPa | 0 mm | - | 0 W/m² | - |
| 1788421045 | 18.33° C | 71% | 1018.1 hPa | 0 mm | - | 0 W/m² | - |
| 1788420443 | 18.33° C | 71% | 1018.1 hPa | 0 mm | - | 0 W/m² | - |
| 1788419844 | 18.33° C | 71% | 1018 hPa | 0 mm | - | 0 W/m² | - |
| 1788419243 | 18.33° C | 71% | 1018.3 hPa | 0 mm | - | 0 W/m² | - |
| 1788418640 | 18.33° C | 71% | 1018.6 hPa | 0 mm | - | 0 W/m² | - |
| 1788418040 | 18.33° C | 71% | 1018.8 hPa | 0 mm | - | 0 W/m² | - |
| 1788417438 | 18.33° C | 72% | 1019 hPa | 0 mm | - | 0 W/m² | - |
| 1788416838 | 18.33° C | 72% | 1019.5 hPa | 0 mm | - | 0 W/m² | - |
| 1788416238 | 18.33° C | 72% | 1019.7 hPa | 0 mm | - | 0 W/m² | - |
| 1788415636 | 18.33° C | 72% | 1020 hPa | 0 mm | - | 0 W/m² | - |
| 1788415033 | 18.33° C | 72% | 1020.2 hPa | 0 mm | - | 0 W/m² | - |
* Rain latest hour (hover to see other rain measurements)
** Current wind speed in m/s (hover to see current wind gust speed)